Location: Finkenwalde
(53.3770°N, 14.6418°E)
Time: 10:43:29
(UTC+00:00)

CZ-2C R/B - Pass Details

Date: 05 February 2023
Orbit: 784 x 869 km, 98.3° (Epoch: 19 March)

Event Time Altitude Azimuth Distance (km) Brightness Sun altitude
Rises 16:23:12 0° 12° (NNE) 3,427 5.5 -5.1°
Reaches altitude 10° 16:25:36 10° 9° (N) 2,498 4.9 -5.5°
Maximum altitude 16:31:01 56° 293° (WNW) 1,021 3.5 -6.2°
Drops below altitude 10° 16:36:29 10° 216° (SW) 2,512 6.1 -7.0°
Sets 16:38:54 0° 212° (SSW) 3,448 6.7 -7.4°
